Find Starlink 34598

NORAD ID: 64759 Int'l Des: 2025-147 Owner: SPXS Country: US Constellation: starlink operational
LEOCIRCULAR

リアルタイム位置

3D地球を読み込み中...

Starlink 34598について

説明を読み込み中...

次回通過

Passes for default location (London). Set your location on the main map for personalized predictions.

高度履歴

Loading altitude history...

軌道要素

1 64759U 25147E 26107.25003472 .00031030 00000-0 10562-2 0 9992
2 64759 53.1589 63.4570 0000868 79.1089 80.5061 15.30177580 5928
Epoch: Apr 17, 2026 • Age: 12 hours

現在のステータス

高度 478.2 km
速度 7.63 km/s
衛星直下点 40.00°N, 17.24°W
打ち上げ日 Jul 8, 2025
運用期間 0.7 years
タイプ internet

技術仕様

分類 Payload
質量 575.00 kg
乾燥質量 530.00 kg
総質量 575.00 kg
長さ 0.30 m
直径 4.10 m
スパン 29.00 m
形状 Box + pan
製造者 SPXS
バスタイプ Starlink V2MO
フェーズステータス In Orbit
所有者/国 SPXS/US

Most Searched